Location: Obersdorf
(47.4079°N, 10.2781°E)
Time: 16:38:52
(UTC+02:00)

Tiangong - Visible Passes

Search period start: 20 September 2021 00:00
Search period end: 30 September 2021 00:00
Orbit: 380 x 386 km, 41.5° (Epoch: 18 September)

Date Brightness Start Highest point End Pass type
(mag) Time Alt. Az. Time Alt. Az. Time Alt. Az.
27 Sep 3.4 06:32:25 10° SSW 06:34:38 18° SSE 06:36:51 10° ESE visible
28 Sep 3.6 05:33:10 12° S 05:33:57 13° SSE 05:35:29 10° SE visible
29 Sep 2.9 06:07:20 13° SW 06:09:17 22° SSE 06:11:48 10° ESE visible
